Probability
0 0 0 0 0 0 1 2 3 3 3 1 0 0 0 0 1 0 0 0 0 0 0 0 0 0 0 0 0 0 0 0 0 0 0 0 0 0 0 0 0 0 0
0 0 0 0 0 0 1 2 2 3 3 2 1 0 0 0 1 0 0 0 0 0 0 0 0 0 0 0 0 0 0 1 1 1 1 1 1 1 0 0 0 0 0
0 0 0 0 0 0 1 1 1 1 2 2 1 0 0 0 0 0 0 0 0 0 0 0 0 1 1 1 2 2 1 1 2 2 2 2 2 2 1 1 1 1 0
0 0 0 0 0 0 0 0 0 1 1 1 0 0 0 0 0 0 0 0 0 0 0 0 0 1 2 3 4 3 3 2 3 3 3 3 3 3 3 3 2 2 1
0 0 0 0 0 0 0 0 1 1 1 0 0 0 0 0 0 0 0 0 1 1 1 1 0 1 1 2 3 3 3 3 4 3 3 2 2 3 3 3 2 2 2
0 0 1 1 1 1 1 1 1 2 1 0 0 0 0 0 0 0 0 1 2 2 2 1 1 1 1 1 1 1 1 2 3 4 3 3 2 3 2 2 2 1 1
1 1 2 2 2 2 2 1 1 1 1 0 1 1 0 0 0 0 0 0 1 1 1 1 1 1 1 0 0 1 1 1 2 3 3 3 3 3 3 2 2 2 1
2 2 2 2 2 3 3 4 3 2 1 1 2 2 1 0 0 0 0 0 0 0 0 0 1 1 0 0 1 2 2 1 1 1 1 2 2 2 2 2 2 2 2
3 2 3 3 2 3 5 7 6 5 4 3 3 3 1 0 0 0 0 0 0 0 0 0 0 1 1 1 2 3 3 3 2 1 0 1 1 0 0 0 0 1 1
3 3 3 4 4 5 7 9 8 8 7 5 4 5 3 2 1 0 0 0 0 0 0 0 0 0 1 3 5 4 2 2 2 2 2 2 1 1 0 0 0 0 0
4 4 4 6 6 7 9 10 9 8 7 5 5 6 5 5 3 1 1 0 0 0 0 0 0 0 1 3 5 3 1 1 1 2 2 2 2 2 2 2 1 0 0
8 8 9 11 11 10 11 11 11 9 8 7 7 7 8 6 4 3 2 1 0 0 0 0 0 0 0 2 3 2 0 0 0 1 1 0 1 2 2 2 2 1 0
11 12 14 15 15 13 12 13 14 12 10 9 8 9 9 7 5 5 4 1 0 0 0 0 0 0 0 1 2 1 0 0 0 0 0 0 1 1 2 2 1 1 1
8 10 11 12 14 14 14 17 18 15 12 10 8 10 11 9 8 7 5 3 1 1 1 1 1 1 3 4 3 2 1 1 0 0 0 0 0 0 0 0 0 0 0
6 6 6 8 12 15 17 20 20 17 14 11 10 13 14 14 12 10 7 7 5 3 2 2 3 3 5 6 4 3 4 3 1 0 0 0 0 0 0 0 0 0 0
7 7 7 10 12 15 17 19 19 18 16 15 15 16 17 17 16 14 12 13 11 8 5 3 4 5 5 5 4 4 6 5 2 1 0 0 0 0 0 0 0 0 0
10 10 11 11 12 13 15 16 17 18 19 18 17 18 19 19 18 18 18 17 15 13 9 6 5 6 5 5 5 6 5 6 4 1 0 0 0 0 0 0 0 0 0
13 12 12 12 13 14 16 18 19 22 25 23 20 21 21 20 21 23 23 19 17 16 13 9 7 8 8 7 8 8 6 5 4 2 0 0 0 0 0 0 0 0 0
14 12 10 11 13 15 17 19 22 27 30 29 26 26 26 24 24 26 26 23 21 19 17 13 9 10 11 10 10 8 7 7 5 3 1 0 0 0 0 0 0 0 0
16 13 11 11 12 14 16 19 23 27 31 33 32 32 32 28 25 26 27 26 25 23 20 15 10 10 12 12 11 10 9 9 9 5 2 1 0 0 0 0 0 0 0
18 18 18 16 14 14 15 18 21 24 29 31 31 32 32 28 22 20 21 22 24 24 23 17 13 13 14 13 12 11 11 10 9 7 5 4 2 1 1 0 0 0 0
19 21 23 23 20 16 13 13 16 21 25 25 25 26 27 25 19 15 12 12 15 19 21 20 19 18 17 14 12 12 11 10 8 6 6 5 3 2 1 0 0 0 0
20 22 24 26 24 17 10 8 10 16 20 20 21 22 22 23 22 18 13 9 9 11 14 18 21 21 20 18 15 13 11 10 8 5 4 4 3 2 1 0 0 0 0
21 22 25 28 26 18 9 6 7 12 16 18 19 19 19 20 22 22 20 16 14 12 10 11 15 17 17 17 17 13 10 9 7 5 4 3 2 1 0 0 0 0 0
24 25 27 28 26 18 9 5 6 11 17 20 19 16 15 15 16 18 20 21 20 17 11 6 7 9 10 10 11 10 8 6 5 4 3 1 1 0 0 0 0 0 0
28 28 28 27 24 18 10 5 6 12 18 22 20 15 12 12 12 14 17 21 22 21 14 6 3 4 5 5 5 6 6 4 3 3 2 0 0 0 0 0 0 0 0
Wind_Speed
2 3 2 2 2 3 4 3 2 3 2 3 2 2 2 1 1 1 4 9 8 7 8 8 8 9 9 9 9 9 9 9 9 9 8 8 8 8 8 8 8 8 7
2 2 3 2 2 2 2 2 2 2 2 2 2 2 2 2 2 2 3 7 9 9 8 8 8 8 9 9 9 9 10 9 9 9 9 9 9 9 9 8 9 9 8
2 2 2 2 2 2 3 2 2 2 2 3 2 2 2 2 2 3 3 2 5 10 9 8 7 7 7 8 9 9 10 10 10 10 10 10 9 9 9 9 9 9 9
2 2 2 2 2 2 3 2 2 2 2 2 2 1 1 2 3 3 3 3 2 3 7 8 6 5 6 7 8 8 9 9 10 10 10 11 10 10 10 10 10 9 9
3 3 2 2 3 2 2 2 2 2 2 1 2 2 2 2 2 2 2 2 2 2 3 7 7 5 5 5 5 6 8 8 9 10 11 11 11 11 11 11 11 10 10
4 3 3 3 3 2 2 1 1 1 1 1 1 1 1 2 2 2 3 2 2 3 3 3 4 5 5 3 3 4 6 7 7 8 9 10 12 12 12 12 12 12 11
4 4 3 3 3 2 2 2 2 2 2 2 2 2 2 2 2 2 2 1 2 2 1 2 2 2 4 6 3 2 4 5 6 7 7 8 9 10 10 11 12 12 12
4 4 4 3 3 2 3 3 3 2 2 2 2 2 2 3 3 2 1 2 1 1 2 2 1 2 2 2 4 4 3 3 4 5 6 6 7 7 8 9 11 11 12
3 3 3 3 3 4 3 3 4 4 3 3 3 2 2 1 1 2 2 1 1 1 1 1 2 1 2 1 2 4 3 3 4 5 5 5 6 6 6 7 8 10 10
4 4 4 4 4 3 3 4 4 4 4 4 3 3 2 1 2 1 2 3 2 2 2 2 2 2 2 2 1 1 2 2 4 5 5 5 5 6 7 7 7 7 8
4 4 4 4 4 4 4 4 3 5 4 4 3 3 3 3 4 3 2 2 2 2 2 2 2 2 1 1 1 1 2 2 2 3 4 4 5 5 6 6 7 7 6
4 5 5 4 4 4 4 4 4 5 4 4 4 4 4 3 4 3 3 3 2 2 2 2 2 2 2 2 1 3 3 1 1 1 2 3 3 4 4 5 6 6 5
4 4 4 4 4 4 5 5 5 5 5 5 5 4 4 4 3 3 3 3 3 2 3 3 3 2 2 2 1 3 3 2 1 1 1 2 2 3 3 4 4 4 4
3 3 4 4 5 5 5 5 5 5 5 5 6 5 4 4 4 4 4 3 3 3 3 3 2 3 2 2 2 3 3 3 2 1 1 1 1 2 1 1 2 2 2
4 4 5 5 5 5 5 5 4 5 5 6 6 6 5 4 4 4 4 4 4 4 3 3 3 2 2 1 2 2 2 3 3 2 2 1 2 1 1 1 1 1 1
4 5 5 5 5 5 5 6 5 5 6 6 4 5 5 5 4 4 4 4 5 5 4 1 2 2 2 2 3 3 2 5 4 3 3 3 2 2 2 2 2 2 2
5 6 6 6 6 6 6 5 6 6 7 6 6 6 6 5 4 4 4 4 4 4 5 3 2 2 3 3 2 3 3 3 3 4 3 3 3 3 3 3 2 2 2
6 6 6 6 7 6 6 6 7 7 7 7 7 7 7 5 6 5 4 5 4 4 5 5 3 3 4 4 3 4 3 2 2 5 5 4 3 3 3 3 3 2 2
5 5 6 6 6 6 7 7 7 7 7 7 7 7 7 6 6 5 5 5 4 5 5 5 4 3 3 3 4 4 3 2 3 5 7 6 5 5 4 4 3 3 3
5 5 6 6 6 7 7 7 7 7 7 6 6 7 7 7 7 6 5 6 5 5 5 5 5 4 4 4 4 4 4 3 3 3 3 4 6 7 6 5 5 4 4
5 5 6 6 6 7 6 6 7 7 7 6 6 6 6 5 3 4 4 5 5 5 5 6 5 5 4 3 4 4 4 3 3 3 3 3 4 4 5 7 6 5 5
5 5 6 6 6 5 2 3 6 6 6 6 6 5 5 6 5 4 2 2 3 5 6 5 5 5 5 5 4 4 4 4 3 3 4 3 3 3 3 3 5 6 6
5 5 6 6 5 3 3 4 6 6 6 5 6 6 5 4 6 6 7 7 6 5 6 7 6 6 5 4 4 5 4 5 4 2 4 4 3 3 3 3 6 7 7
4 4 5 5 5 4 4 6 6 7 6 6 6 6 6 6 5 5 6 7 7 7 8 8 6 5 4 3 5 6 5 6 5 4 4 4 3 3 3 3 8 8 7
4 5 5 5 6 5 5 6 7 6 6 6 6 5 5 6 3 4 7 7 7 6 6 4 3 3 2 2 3 5 5 6 5 4 4 4 3 3 3 4 6 10 8
6 5 5 5 6 6 4 6 8 6 6 5 5 5 5 5 4 5 7 7 8 6 5 5 6 7 7 6 6 6 5 5 4 3 3 3 3 3 3 3 3 5 6
Wind_Direction
147 142 141 147 154 131 146 165 166 151 166 182 188 175 191 187 176 170 139 161 181 194 200 204 203 201 200 201 202 204 205 205 203 201 204 206 207 207 206 208 209 209 209
147 159 160 160 152 145 143 162 174 177 191 186 204 197 209 194 176 201 183 165 181 194 205 211 210 209 208 209 210 209 210 212 210 208 210 211 212 214 214 216 215 215 216
160 183 168 168 152 146 149 184 181 194 201 191 200 207 211 211 191 199 215 202 181 186 197 205 208 210 211 212 214 214 213 215 216 214 214 214 215 217 219 222 224 223 223
183 203 189 173 170 186 178 181 194 195 193 195 188 218 212 193 204 208 218 211 215 190 179 183 195 206 212 216 219 217 216 216 217 218 217 217 218 218 219 221 225 225 224
193 201 203 173 203 204 199 214 171 201 191 191 197 188 202 196 207 213 216 209 205 220 198 161 175 192 211 221 228 221 219 221 221 221 222 223 223 223 221 224 227 226 225
196 204 201 192 211 206 198 209 199 193 206 208 239 171 197 178 201 202 222 202 199 214 215 199 184 181 187 207 226 228 229 226 224 224 224 228 229 226 224 225 225 225 225
203 207 218 196 211 210 208 204 204 199 205 201 203 194 195 189 189 199 220 229 203 205 212 212 217 213 176 179 190 224 235 230 227 222 223 227 229 227 225 226 226 225 225
217 207 209 216 205 204 210 217 214 229 221 204 224 221 205 188 189 187 184 209 220 197 194 195 197 205 248 192 151 183 223 235 239 232 226 227 229 231 232 232 230 228 229
218 226 215 225 223 222 215 218 218 226 233 224 232 251 247 213 167 163 178 187 207 229 227 198 209 212 220 230 191 168 201 234 248 251 243 235 231 230 232 234 235 234 232
211 215 217 221 225 221 214 221 213 223 230 225 209 226 265 302 245 185 187 177 188 218 256 253 230 206 219 224 180 102 178 220 245 255 254 247 238 234 233 233 236 237 232
207 215 218 221 220 219 217 226 224 227 226 228 220 206 208 214 232 233 220 212 198 204 212 232 240 232 220 235 228 140 163 201 240 256 259 251 239 236 237 233 235 234 236
204 205 212 220 220 220 215 217 218 218 228 233 234 226 219 216 216 217 228 225 215 203 210 224 232 229 229 233 188 101 126 154 205 254 267 253 240 240 237 229 228 228 236
212 208 217 219 222 219 218 213 212 222 222 226 230 230 233 241 241 236 238 239 236 217 209 217 214 219 221 221 164 138 143 146 164 231 261 249 232 225 224 225 227 229 240
226 212 217 222 225 224 220 212 218 215 221 226 229 232 232 234 238 237 238 239 237 222 207 219 198 202 217 219 115 198 159 148 172 187 208 212 200 191 182 193 208 214 229
220 213 220 223 228 228 225 219 221 222 222 224 221 215 225 225 232 236 237 240 249 251 227 196 212 181 198 196 156 211 197 140 165 168 172 161 161 163 158 150 149 161 173
224 221 224 225 227 228 227 226 220 215 218 221 226 229 228 226 226 229 235 235 242 260 268 209 207 195 217 224 170 220 201 151 161 173 177 173 171 172 165 159 155 153 153
219 221 224 225 227 229 229 228 231 224 223 223 221 218 222 231 229 225 230 233 234 234 245 246 215 189 207 241 203 223 215 208 163 164 178 179 180 180 176 168 161 162 163
220 220 223 225 227 227 225 225 228 228 227 225 223 222 222 217 219 231 230 228 228 228 235 242 231 206 213 221 217 229 228 213 193 151 168 180 188 189 184 177 170 173 182
224 226 224 226 228 228 228 228 229 229 232 233 228 224 224 222 223 220 223 223 222 221 225 235 239 224 221 207 210 217 223 234 225 167 173 179 188 192 192 188 184 182 184
224 230 232 231 232 232 232 233 236 236 234 235 234 230 226 223 223 221 220 223 225 226 221 231 235 225 216 203 217 219 215 214 231 207 180 186 182 187 189 187 188 184 184
226 230 237 238 236 232 232 233 235 236 238 238 233 230 227 219 227 234 235 220 220 228 226 227 233 231 219 208 222 227 231 221 221 228 216 201 192 196 188 187 190 190 189
230 230 235 240 242 241 208 236 247 237 236 236 234 229 214 201 192 193 220 254 257 240 242 240 238 238 233 226 230 238 235 233 228 205 231 224 213 213 205 195 169 178 191
232 237 240 241 242 240 207 216 232 235 233 234 234 234 232 208 206 209 201 208 221 237 252 259 254 251 241 230 238 237 233 246 253 209 226 229 213 222 215 174 157 176 192
236 243 247 249 246 233 204 212 226 232 237 234 229 228 230 225 214 216 219 220 223 221 226 234 245 251 251 244 230 239 241 235 232 207 216 236 215 225 219 189 164 175 185
243 245 247 249 250 240 213 211 223 232 227 228 228 226 226 225 199 220 226 227 229 226 211 214 245 261 283 257 256 247 232 234 231 204 206 242 230 231 224 211 175 173 181
238 238 240 247 252 250 222 212 219 233 224 222 218 218 218 223 192 207 228 230 231 229 221 203 210 218 223 209 211 233 243 245 241 219 181 227 227 225 228 209 193 183 191